This demonstration page uses our WeatherBlox Daily Observations layout. Learn more.

Left ArrowRight Arrow

39.01783, -85.05884

Hourly Observations for November 5, 2021

Temp ( °F °C ) Dew Point ( °F °C ) Humidity (%) Winds ( mph kmh ) Pressure ( in mb ) Visibility ( mi km ) Precip ( " mm )
12:52 am 00:52 Clear 37 2.8 26 -3.3 65 65 NNE 5 7 30.32 1027 10 16 0.00 0.00
1:52 am 01:52 Clear 37 2.8 27 -2.8 67 67 Calm 30.32 1027 10 16 0.00 0.00
2:52 am 02:52 Clear 34 1.1 27 -2.8 76 76 N 6 9 30.32 1027 10 16 0.00 0.00
3:52 am 03:52 Clear 35 1.7 27 -2.8 72 72 Calm 30.33 1027 10 16 0.00 0.00
4:52 am 04:52 Clear 33 0.6 26 -3.3 75 75 NNE 3 6 30.35 1028 10 16 0.00 0.00
5:52 am 05:52 Clear 32 0 27 -2.8 82 82 N 6 9 30.36 1028 8 13 0.00 0.00
6:52 am 06:52 Clear with Patchy Fog 33 0.6 27 -2.8 78 78 NNE 3 6 30.38 1029 7 11 0.00 0.00
7:52 am 07:52 Clear with Patchy Fog 33 0.6 27 -2.8 78 78 Calm 30.39 1029 7 11 0.00 0.00
8:52 am 08:52 Sunny with Mist and Fog 32 0 28 -2.2 85 85 NNE 6 9 30.41 1030 6 10 0.00 0.00
9:52 am 09:52 Sunny 38 3.3 29 -1.7 70 70 E 5 7 30.42 1030 10 16 0.00 0.00
10:52 am 10:52 Sunny 43 6.1 30 -1.1 60 60 ENE 7 11 30.42 1030 10 16 0.00 0.00
11:52 am 11:52 Sunny 47 8.3 28 -2.2 48 48 E 10 17 30.42 1030 10 16 0.00 0.00
12:52 pm 12:52 Sunny 48 8.9 27 -2.8 44 44 ENE 6 9 30.41 1030 10 16 0.00 0.00
1:52 pm 13:52 Sunny 50 10 27 -2.8 41 41 Calm 30.37 1029 10 16 0.00 0.00
2:52 pm 14:52 Sunny 51 10.6 27 -2.8 39 39 NE 3 6 30.34 1028 10 16 0.00 0.00
3:52 pm 15:52 Sunny 51 10.6 26 -3.3 38 38 E 5 7 30.33 1027 10 16 0.00 0.00
4:52 pm 16:52 Sunny 51 10.6 27 -2.8 39 39 Calm 30.32 1027 10 16 0.00 0.00
5:52 pm 17:52 Sunny 49 9.4 28 -2.2 44 44 ESE 6 9 30.32 1027 10 16 0.00 0.00
6:52 pm 18:52 Clear 46 7.8 27 -2.8 47 47 E 6 9 30.31 1026 10 16 0.00 0.00
7:52 pm 19:52 Clear 45 7.2 26 -3.3 48 48 E 5 7 30.32 1027 10 16 0.00 0.00
8:52 pm 20:52 Clear 41 5 28 -2.2 60 60 Calm 30.34 1027 10 16 0.00 0.00
9:52 pm 21:52 Clear 41 5 28 -2.2 60 60 Calm 30.33 1027 10 16 0.00 0.00
10:52 pm 22:52 Clear 38 3.3 28 -2.2 68 68 Calm 30.32 1027 10 16 0.00 0.00
11:52 pm 23:52 Clear 39 3.9 27 -2.8 62 62 ESE 9 15 30.30 1026 10 16 0.00 0.00

Powered by AerisWeather